User: anonymous   Login
Location: Austin
(30.3000°N, 97.7500°W)
Time: 14:03:45
(UTC-05:00)
Language:

IRS-1C - Orbit

View from above orbital plane
View from above orbital plane
View from above satellite
View from above satellite

Ground track
Ground track

The orbit is defined by the following mean orbital elements,

1 23751U          26111.29164997 +.00000000 +00000-0 +38581-4 0 00008
2 23751  99.0255 128.9082 0001184  97.5765 262.5546 14.23554586    06
Epoch (UTC): 21 April 2026 06:59:58
Eccentricity: 0.0001184
inclination: 99.0255°
perigee height: 813 km
apogee height: 814 km
right ascension of ascending node: 128.9082°
argument of perigee: 97.5765°
revolutions per day: 14.23554586
mean anomaly at epoch: 262.5546°

The dashed part of the orbit path shows where the satellite is in the earth's shadow,  

DLR